STARLINK-1656, 46353

Orbit data source: Space-Track

STARLINK-1656, 46353 is a payload satellite owned by SpaceX/Seattle (US) in LEO that was launched on Thu, 03 Sep 2020 UTC via an FALCON 9 launch vehicle from the Air Force Eastern Test Range (AFETR). Payload-class satellites include a variety of spacecraft equipped with specific instruments for various scientific and technological missions. These include communications satellites like Starlink; space stations such as the ISS; scientific satellites like the Hubble; Earth observation satellites from companies like Planet Labs, Umbra, and HawkEye 360; GPS; miniature CubeSats for education and research; and military/defense satellites.

Loading next visibility...
Identifier
46353, 2020-062AE
Orbit
LEO
Country
Flag of USUS
Related business
Manufacturer
SpaceX/Seattle
Mission
Partially operational Commercial Communications
Bus & Motor
STARLINK, Unknown motor
Mass
260 kg wet, ~248 kg dry
Launch date (UTC)
2020-09-03 (6 years ago)
Launch vehicle
FALCON 9
Launch site
Air Force Eastern Test Range (AFETR)
Object type
Payload
Rocket body
Debris
Shape & HBR
Box + 1 Pan, 10.1 m
Radar Cross Section
13.562 m², Large (>1 m²)

Expand to show TLE details & history
Last TLE update: 8 hours ago

TLE from 8 hours ago
0 STARLINK-1656
1 46353U 20062AE  26072.97812183  .00100169  00000-0  15639-2 0  9990
2 46353  53.0503 338.8846 0003057 169.5047 190.6027 15.53034593305210
Epoch: 2026-03-13T23:28Z
TLE epoch observation values (Epoch: 2026-03-13T23:28:29.726Z)
Latitude
0.00003°
Longitude
175.15486°
Altitude
410.808 km
Speed
7.664 km/s
True Right ascension
22h 35m 32s
True Declination
0° 00' 00"
Sunlit
Object was in daylight at epoch
Visualization orbit readout
Latitude
Unknown
Longitude
Unknown
Altitude
Unknown
Speed
Unknown
Apparent Right ascension
Unknown
Apparent Declination
Unknown
Sunlit
N/A
Visualization observer readout
Local Sidereal Time
12:01:29
Azimuth
Unknown
Elevation
Unknown
Doppler factor
Unknown
Orbital elements
Apogee altitude
410.223 km
Perigee altitude
406.074 km
Semi-major axis
6,786.286 km
Eccentricity
0.00031
Inclination
53.0503°
RAAN
338.8846°
Arg. of periapsis
169.5047°
True anomaly
190.59626°
Mean anomaly
190.6027°
Eccentric anomaly
190.59948°
Mean motion
3.88235 °/min
Orbital period
92.73 mins
BSTAR
0.0015639
Loading maneuver chart data...
Computing Atmospheric mass density...
Loading historical data...
Loading historical data...
Loading historical data...
Loading historical data...
Loading historical data...
Loading historical data...
Loading historical data...

Documentation

Showing up to 5 results
|